Regional Weather Roundup
Issued by NWS

Home | Current Version | Previous Version | Graphics & Text | Print | Product List | Glossary On
Versions: 1 2 3 4 5 6 7 8 9 10 11 12 13 14 15 16 17 18 19 20 21 22 23 24 25 26 27 28 29 30 31 32 33 34 35 36 37 38 39 40 41 42 43 44 45 46 47 48 49 50
000
ASUS45 KABQ 221301
RWRNM
NEW MEXICO REGIONAL WEATHER ROUNDUP
NATIONAL WEATHER SERVICE ALBUQUERQUE NM
700 AM MDT SAT JUL 22 2017

NOTE: "FAIR" MEANS FEW OR NO CLOUDS BELOW 12,000 FEET AGL WITH NO
       SIGNIFICANT WEATHER OR OBSTRUCTIONS TO VISION.

      THIS PRODUCT IS RELEASED AS TWO VERSIONS.  ONE VERSION NEAR
      THE TOP OF THE HOUR CONTAINING PRELIMINARY DATA FROM ALBUQUERQUE
      AND OTHER STATIONS.  A FINAL VERSION WITH ADDITIONAL DATA IS
      ISSUED ABOUT 10 MINUTES AFTER THE HOUR.

NMZ501-503-504-510>518-221400-
NORTHWEST PLATEAU/NORTHCENTRAL MOUNTAINS

CITY           SKY/WX    TMP DP  RH WIND       PRES   REMARKS
FARMINGTON     FAIR      66  57  72 E3        30.17R
LOS ALAMOS     FAIR      65  47  53 CALM      30.30R
SANTA FE       FAIR      66  55  67 CALM      30.24R
TAOS           FAIR      57  43  58 NW3       30.32R
ANGEL FIRE     FAIR      46  44  92 SE6       30.42R

$$
NMZ402-403-502-505>509-221400-
WESTCENTRAL MOUNTAINS/SOUTHWEST MOUNTAINS

CITY           SKY/WX    TMP DP  RH WIND       PRES   REMARKS
GALLUP         FAIR      62  57  83 CALM      30.24S
GRANTS         MOCLDY    59  53  79 NW3       30.28R
SILVER CITY    CLOUDY    67  63  89 CALM      30.18R

$$
NMZ407-409-411-412-221400-
SOUTHERN DESERTS

CITY           SKY/WX    TMP DP  RH WIND       PRES   REMARKS
DEMING         FAIR      69  67  93 CALM      30.10S
LAS CRUCES     FAIR      69  67  90 SW3       30.12S
HOLLOMAN AFB   CLOUDY    71  62  75 S3        30.11S
ALAMOGORDO     FAIR      68  63  83 CALM      30.11S
T OR C         MOCLDY    70  59  68 CALM      30.13R

$$
NMZ519>523-221400-
CENTRAL VALLEYS/CENTRAL HIGHLANDS

CITY           SKY/WX    TMP DP  RH WIND       PRES   REMARKS
ALBUQUERQUE    FAIR      67  58  72 SE6       30.18R
MORIARTY ARPT  FAIR      59  54  83 CALM      30.25R
CLINES CORNERS FAIR      62  54  74 VRB3      30.29S
BELEN          NOT AVBL
SOCORRO        FAIR      68  59  73 CALM      30.15R

$$
NMZ524>526-539-540-221400-
SOUTHCENTRAL MOUNTAINS

CITY           SKY/WX    TMP DP  RH WIND       PRES   REMARKS
RUIDOSO        FAIR      59  54  82 W6        30.29S

$$
NMZ527>531-221400-
NORTHEAST HIGHLANDS/NORTHEAST PLAINS

CITY           SKY/WX    TMP DP  RH WIND       PRES   REMARKS
LAS VEGAS      FAIR      58  48  69 NE8       30.28R
RATON          FAIR      66  50  56 NE5       30.24R
CLAYTON        FAIR      71  54  54 N14       30.13R

$$
NMZ532>537-221400-
EASTCENTRAL PLAINS

CITY           SKY/WX    TMP DP  RH WIND       PRES   REMARKS
SANTA ROSA     FAIR      70  56  61 NW3       30.12R
TUCUMCARI      FAIR      75  56  51 NW7       30.06R
CANNON AFB     PTSUNNY   72  61  67 CALM      30.12R
CLOVIS AIRPORT FAIR      71  60  68 SW6       30.11R

$$
NMZ028-029-538-221400-
SOUTHEAST PLAINS

CITY           SKY/WX    TMP DP  RH WIND       PRES   REMARKS
ROSWELL        FAIR      70  55  59 N5        30.05R
ARTESIA        FAIR      73  63  68 CALM      30.06R
CARLSBAD       FAIR      73  65  75 E3        30.03R
HOBBS          SUNNY     72  63  73 CALM      30.08R


$$




USA.gov is the U.S. government's official web portal to all federal, state and local government web resources and services.